Location: Miles
(41.4492°N, 81.6087°W)
Time: 03:03:11
(UTC+00:00)

S-56A Canister/Altair - Pass Details

Date: 26 September 2024
Orbit: 636 x 2487 km, 38.9° (Epoch: 11 October)

Event Time Altitude Azimuth Distance (km) Brightness Sun altitude
Rises 01:53:34 0° 276° (W) 3,271 11.8 -29.2°
Reaches altitude 10° 01:55:58 10° 265° (W) 2,501 10.8 -29.6°
Maximum altitude 02:01:07 31° 204° (SSW) 1,773 9.2 -30.4°
Enters shadow 02:01:15 31° 202° (SSW) 1,781 9.2 -30.4°
